Flag for Germany Weather past 2 weeks in Dillenburg, Hesse, Germany

Now
36 °F

Overcast.


Feels Like: 34 °F
Forecast: 34 / 40 °F
Wind: 3 mph from Southeast

Location: Giessen

Current Time: Mar 1, 2015 at 1:39:44 AM

Latest Report: Mar 1, 2015 at 1:00 AM


Visibility: 14 mi

Pressure: 29.90 "Hg

Humidity: 76%

Dew point: 29 °F

Location of DillenburgLocation

Historic Weather in Dillenburg — Graph

°F

Dillenburg temperature yesterday

Maximum temperature yesterday: 45 °F (at 3:00 PM)
Minimum temperature yesterday: 29 °F (at 8:00 AM)
Average temperature yesterday: 35 °F

Past Weeks' High & Low Weather Summary

 TemperatureHumidityPressure
High49 °F (Feb 20, 9:00 PM)100% (Feb 15, 3:00 AM)30.77 "Hg (Feb 15, 3:00 AM)
Low25 °F (Feb 15, 6:00 AM)52% (Feb 28, 5:00 PM)29.41 "Hg (Feb 21, 7:00 AM)
Average36 °F86%30.03 "Hg
* Reported Midnight between Feb 13 and Feb 14 — Midnight between Feb 28 and Mar 1, Dillenburg, Weather by CustomWeather, © 2015

Note: Actual official high and low records may vary slightly from our data, if they occured in-between our weather recording intervals... More about our weather records

Advertising

Dillenburg weather history for previous 24 hours

 ConditionsComfort  
Time TempWeatherWind HumidityBarometerVisibility
12:00 AM
Sun, Mar 1
36 °FOvercast.5 mph75%29.93 "Hg16 mi
11:00 PM
Sat, Feb 28
35 °FOvercast.3 mph78%29.96 "Hg16 mi
10:00 PM33 °FOvercast.2 mph81%30.00 "Hg14 mi
9:00 PM35 °FPassing clouds.2 mph84%30.02 "Hg14 mi
8:00 PM38 °FOvercast.5 mph69%30.02 "Hg18 mi
7:00 PM39 °FClear.3 mph64%30.04 "Hg25 mi
6:00 PM42 °FPassing clouds.5 mph56%30.04 "Hg34 mi
5:00 PM44 °FSunny.6 mph52%30.05 "Hg28 mi
4:00 PM45 °FScattered clouds.6 mph53%30.07 "Hg19 mi
3:00 PM45 °FOvercast.1 mph61%30.09 "Hg18 mi
2:00 PM42 °FOvercast.2 mph67%30.12 "Hg11 mi
1:00 PM39 °FSunny.2 mph83%30.14 "Hg5 mi
12:00 PM36 °FFog.2 mph92%30.18 "Hg3 mi
11:00 AM32 °FFog.3 mph99%30.20 "Hg3 mi
10:00 AM31 °FLow clouds.5 mph100%30.21 "Hg2 mi
9:00 AM30 °FLow clouds.6 mph100%30.21 "Hg1 mi
8:00 AM29 °FFog.2 mph99%30.20 "Hg3 mi
7:00 AM29 °FFog.3 mph100%30.19 "Hg3 mi
6:00 AM30 °FFog.2 mph98%30.19 "Hg4 mi
5:00 AM31 °FClear.3 mph98%30.19 "Hg11 mi
4:00 AM31 °FClear.3 mph97%30.18 "Hg10 mi
3:00 AM33 °FClear.5 mph95%30.17 "Hg10 mi
2:00 AM32 °FPassing clouds.2 mph96%30.17 "Hg7 mi
1:00 AM34 °FOvercast.2 mph95%30.17 "Hg10 mi
Weather by CustomWeather, © 2015

See weather overviewHow to use our weather pages